Location: Moydans
(44.3997°N, 5.5038°E)
Time: 17:11:24
(UTC+02:00)

Nauka - Pass Details

Date: 26 September 2021
Orbit: 417 x 423 km, 51.6° (Epoch: 26 October)

Event Time Altitude Azimuth Distance (km) Brightness Sun altitude
Rises 20:57:42 0° 294° (WNW) 2,363 ? -16.7°
Reaches altitude 10° 21:00:05 10° 309° (NW) 1,500 ? -17.2°
Maximum altitude 21:02:52 24° 5° (N) 927 ? -17.6°
Enters shadow 21:03:52 21° 33° (NNE) 1,019 ? -17.8°
